Starkville, MS

1:30 PM CST on December 05, 2016 (GMT -0600)
Bryan

Weather History for KSTF - March, 2012

Change the Weather History Date:

Friday, March 30, 2012

  Actual Average Record
Temperature  
Mean Temperature 66 °F -  
Max Temperature 73 °F 70 °F 77 °F (2015)
Min Temperature 60 °F 47 °F 33 °F (2014)
Cooling Degree Days 2    
Growing Degree Days 16 (Base 50)    
Moisture  
Dew Point 63 °F    
Average Humidity 92    
Maximum Humidity 100    
Minimum Humidity 73    
Precipitation  
Precipitation 1.37 in - - ()
Sea Level Pressure  
Sea Level Pressure 29.90 in    
Wind  
Wind Speed 2 mph (SSE)    
Max Wind Speed 9 mph    
Max Gust Speed -    
Visibility 7 miles    
Events Fog , Rain , Thunderstorm    
Averages and records for this station are not official NWS values.
T = Trace of Precipitation, MM = Missing Value Source: NWS Daily Summary

Daily Weather History Graph

Daily Weather History Graph

Search for Another Location

Airport or City:

Trip Planner

Search our weather history database for the weather conditions in past years. The results will help you decide how hot, cold, wet, or windy it might be!

Date:

Astronomy

Mar. 30, 2012 Rise Set
Actual Time 6:45 AM CDT 7:14 PM CDT
Civil Twilight 6:20 AM CDT 7:39 PM CDT
Nautical Twilight 5:50 AM CDT 8:09 PM CDT
Astronomical Twilight 5:21 AM CDT 8:38 PM CDT
Moon 12:03 PM CDT (3/30) 1:37 AM CDT (3/30)
Length of Visible Light 13h 19m
Length of Day
12h 29m
Waxing Crescent, 49% of the Moon is Illuminated
Mar 30
Waxing Crescent
Mar 30
First Quarter
Apr 6
Full
Apr 13
Last Quarter
Apr 21
New

Hourly Weather History & Observations

Time (CDT) Temp. Dew Point Humidity Pressure Visibility Wind Dir Wind Speed Gust Speed Precip Events Conditions
12:15 AM 64.4 °F 62.6 °F 94% 29.94 in 10.0 mi Calm Calm - N/A   Clear
12:35 AM 62.6 °F 60.8 °F 94% 29.93 in 10.0 mi Calm Calm - N/A   Clear
12:55 AM 62.6 °F 60.8 °F 94% 29.93 in 10.0 mi Calm Calm - N/A   Clear
1:15 AM 62.6 °F 60.8 °F 94% 29.94 in 10.0 mi SSE 3.5 mph - N/A   Clear
1:35 AM 62.6 °F 60.8 °F 94% 29.94 in 10.0 mi Calm Calm - N/A   Scattered Clouds
2:15 AM 62.6 °F 60.8 °F 94% 29.93 in 10.0 mi Calm Calm - N/A   Mostly Cloudy
2:35 AM 62.6 °F 60.8 °F 94% 29.93 in 10.0 mi Calm Calm - N/A   Mostly Cloudy
2:55 AM 62.6 °F 60.8 °F 94% 29.92 in 10.0 mi Calm Calm - N/A   Mostly Cloudy
3:15 AM 62.6 °F 60.8 °F 94% 29.91 in 10.0 mi Calm Calm - N/A   Mostly Cloudy
3:35 AM 62.6 °F 60.8 °F 94% 29.91 in 10.0 mi Calm Calm - N/A   Scattered Clouds
3:55 AM 62.6 °F 60.8 °F 94% 29.91 in 10.0 mi Calm Calm - N/A   Mostly Cloudy
4:15 AM 62.6 °F 60.8 °F 94% 29.92 in 7.0 mi Calm Calm - N/A   Overcast
4:35 AM 62.6 °F 60.8 °F 94% 29.92 in 10.0 mi Calm Calm - N/A   Overcast
4:55 AM 62.6 °F 60.8 °F 94% 29.93 in 10.0 mi Calm Calm - N/A   Overcast
5:15 AM 62.6 °F 60.8 °F 94% 29.93 in 10.0 mi SSE 3.5 mph - N/A   Mostly Cloudy
5:35 AM 62.6 °F 60.8 °F 94% 29.93 in 7.0 mi Calm Calm - N/A   Overcast
5:55 AM 62.6 °F 60.8 °F 94% 29.93 in 10.0 mi SSE 3.5 mph - N/A   Mostly Cloudy
6:15 AM 62.6 °F 60.8 °F 94% 29.93 in 7.0 mi Calm Calm - N/A   Overcast
6:35 AM 62.6 °F 62.6 °F 100% 29.93 in 7.0 mi Calm Calm - N/A Thunderstorm Overcast
7:15 AM 62.6 °F 62.6 °F 100% 29.94 in 7.0 mi SSE 4.6 mph - N/A   Overcast
7:35 AM 62.6 °F 62.6 °F 100% 29.95 in 5.0 mi SSE 4.6 mph - N/A   Overcast
8:15 AM 64.4 °F 62.6 °F 94% 29.95 in 2.0 mi Calm Calm - N/A   Overcast
8:35 AM 64.4 °F 62.6 °F 94% 29.95 in 2.5 mi South 4.6 mph - N/A   Overcast
9:15 AM 66.2 °F 64.4 °F 94% 29.95 in 5.0 mi SSE 3.5 mph - N/A   Overcast
9:35 AM 68.0 °F 64.4 °F 88% 29.95 in 5.0 mi SSW 5.8 mph - N/A Rain Light Rain
9:55 AM 69.8 °F 64.4 °F 83% 29.95 in 10.0 mi SW 5.8 mph - N/A Rain Light Rain
10:15 AM 69.8 °F 64.4 °F 83% 29.95 in 10.0 mi Calm Calm - N/A   Mostly Cloudy
10:35 AM 71.6 °F 64.4 °F 78% 29.95 in 10.0 mi WSW 3.5 mph - N/A   Mostly Cloudy
10:55 AM 71.6 °F 64.4 °F 78% 29.95 in 10.0 mi West 3.5 mph - N/A   Overcast
11:15 AM 71.6 °F 62.6 °F 73% 29.94 in 10.0 mi SSW 4.6 mph - N/A   Overcast
11:35 AM 71.6 °F 64.4 °F 78% 29.93 in 10.0 mi SW 4.6 mph - N/A Rain Light Rain
11:55 AM 73.4 °F 64.4 °F 73% 29.92 in 10.0 mi West 3.5 mph - N/A   Mostly Cloudy
12:15 PM 73.4 °F 64.4 °F 73% 29.91 in 10.0 mi SSE 4.6 mph - N/A   Mostly Cloudy
12:35 PM 71.6 °F 64.4 °F 78% 29.91 in 7.0 mi SE 3.5 mph - N/A Rain , Thunderstorm Rain
12:55 PM 66.2 °F 62.6 °F 88% 29.91 in 1.5 mi Calm Calm - 0.30 in Rain , Thunderstorm Thunderstorms and Rain
1:15 PM 68.0 °F 64.4 °F 88% 29.90 in 10.0 mi NNE 3.5 mph - N/A   Overcast
1:35 PM 69.8 °F 66.2 °F 88% 29.89 in 10.0 mi ESE 8.1 mph - N/A   Overcast
1:55 PM 68.0 °F 64.4 °F 88% 29.88 in 10.0 mi ESE 5.8 mph - N/A   Overcast
2:15 PM 68.0 °F 62.6 °F 83% 29.87 in 10.0 mi East 9.2 mph - N/A   Overcast
2:35 PM 66.2 °F 64.4 °F 94% 29.87 in 4.0 mi SE 5.8 mph - 0.03 in Rain Heavy Rain
2:55 PM 64.4 °F 64.4 °F 100% 29.87 in 1.5 mi ENE 5.8 mph - 0.16 in Rain Heavy Rain
3:35 PM 68.0 °F 64.4 °F 88% 29.85 in 7.0 mi East 5.8 mph - 0.13 in   Overcast
3:55 PM 66.2 °F 64.4 °F 94% 29.86 in 10.0 mi SE 3.5 mph - 0.13 in   Overcast
4:35 PM 64.4 °F 64.4 °F 100% 29.86 in 3.0 mi North 4.6 mph - 0.74 in Rain Rain
4:55 PM 64.4 °F 64.4 °F 100% 29.86 in 5.0 mi NNE 3.5 mph - 0.75 in   Drizzle
5:35 PM 64.4 °F 64.4 °F 100% 29.85 in 7.0 mi Calm Calm - 0.02 in Rain Light Rain
5:55 PM 66.2 °F 64.4 °F 94% 29.85 in 7.0 mi Calm Calm - 0.02 in Rain Rain
6:15 PM 64.4 °F 64.4 °F 100% 29.85 in 10.0 mi Calm Calm - N/A   Mostly Cloudy
6:35 PM 64.4 °F 64.4 °F 100% 29.85 in 10.0 mi Calm Calm - N/A   Clear
7:35 PM 62.6 °F 62.6 °F 100% 29.85 in 3.0 mi Calm Calm - N/A   Clear
7:55 PM 62.6 °F 62.6 °F 100% 29.85 in 5.0 mi Calm Calm - N/A   Clear
8:15 PM 62.6 °F 62.6 °F 100% 29.85 in 4.0 mi Calm Calm - N/A   Clear
8:35 PM 62.6 °F 62.6 °F 100% 29.86 in 4.0 mi Calm Calm - N/A   Clear
9:15 PM 62.6 °F 62.6 °F 100% 29.87 in 2.5 mi Calm Calm - N/A   Clear
9:35 PM 62.6 °F 60.8 °F 94% 29.88 in 0.5 mi Calm Calm - 0.01 in Fog Fog
9:55 PM 60.8 °F 60.8 °F 100% 29.88 in 1.2 mi Calm Calm - 0.01 in   Scattered Clouds
10:15 PM 62.6 °F 60.8 °F 94% 29.88 in 0.5 mi Calm Calm - N/A Fog Fog
10:35 PM 62.6 °F 60.8 °F 94% 29.88 in 0.8 mi Calm Calm - N/A   Mostly Cloudy
10:55 PM 60.8 °F 60.8 °F 100% 29.88 in 0.2 mi Calm Calm - N/A Fog Fog
11:35 PM 60.8 °F 60.8 °F 100% 29.88 in 0.8 mi Calm Calm - N/A   Mist
11:55 PM 60.8 °F 59.0 °F 94% 29.88 in 0.8 mi Calm Calm - N/A   Mist